sat.trackr.live / text

‹ back to catalog

STARLINK-5260

NORAD 55275 · 2023-010G

PAYLOAD ACTIVE UNKNOWN

§ Identity

Operator
Country
US
Launch date
2023-01-19
Launch site
AFWTR
Launch vehicle
Mass (kg)
RCS (m²)

Purposes: comms

External: N2YO · Heavens-Above · Gunter

§ Orbital elements

Epoch: 2026-05-24T13:51:31.483872Z

Period
96.11 min
Inclination
70.0002°
Eccentricity
0.0003541
Mean motion
14.98333067 rev/d
Perigee alt
569.6 km
Apogee alt
574.5 km
Semi-major
6,950.2 km
B*
7.7766e-5
RAAN
193.2285°
Arg perigee
268.0318°
Mean anomaly
92.0436°
Rev number
18,464

§ Raw data

STARLINK-52601 55275U 23010G   26144.57744773  .00000835  00000+0  77766-4 0  99932 55275  70.0002 193.2285 0003541 268.0318  92.0436 14.98333067184647

JSON: /api/v1/satellites/55275 · /tle

For live sub-satellite position, see the globe view (requires WebGL).

§ Visibility from observer

Set your observer location to see the next 7 days of passes ≥ 10°. The values pass through the URL so the page stays shareable.

No JS? Fill the form by hand. The geolocation button needs JavaScript.